When you browse on this site, cookies collect data to enhance your experience and personalize the content and advertising you see.
Visit our Privacy Policy to learn more. By continuing to use the site, you agree to this use of cookies and data.
  • In Hungary
  • List of Countries
  • For 7 days
  • Water Temperature
  • Satellite Maps
  • Weather Map
  • News
  • Weather Widgets
  • user-avatar
    Login

    Hourly Weather Konin

    Today, 27 May, Monday

    Time Temperature Precipitation Wind Pressure Humidity
    00:00 +14°C° 0 mm 3 mps 746 mmHg 81%
    01:00 +14°C° 0 mm 3 mps 746 mmHg 81%
    02:00 +13°C° 0 mm 3 mps 746 mmHg 82%
    03:00 +13°C° 0 mm 3 mps 745 mmHg 83%
    04:00 +13°C° 0 mm 3 mps 745 mmHg 84%
    05:00 +14°C° 0 mm 3 mps 745 mmHg 78%
    06:00 +17°C° 0 mm 4 mps 745 mmHg 72%
    07:00 +18°C° 0 mm 4 mps 745 mmHg 67%
    08:00 +20°C° 0 mm 4 mps 745 mmHg 62%
    09:00 +21°C° 0 mm 4 mps 745 mmHg 56%
    10:00 +23°C° 0 mm 5 mps 745 mmHg 51%
    11:00 +23°C° 0 mm 5 mps 745 mmHg 49%
    12:00 +25°C° 0 mm 4 mps 745 mmHg 46%
    13:00 +26°C° 0 mm 4 mps 744 mmHg 44%
    14:00 +26°C° 0 mm 4 mps 744 mmHg 44%
    15:00 +26°C° 0 mm 3 mps 744 mmHg 45%
    16:00 +26°C° 0 mm 3 mps 744 mmHg 45%
    17:00 +24°C° 0 mm 2 mps 743 mmHg 53%
    18:00 +23°C° 0 mm 2 mps 743 mmHg 62%
    19:00 +20°C° 0 mm 2 mps 743 mmHg 70%
    20:00 +19°C° 0.1 mm 2 mps 743 mmHg 76%
    21:00 +18°C° 0.1 mm 2 mps 743 mmHg 82%
    22:00 +16°C° 0.1 mm 2 mps 743 mmHg 89%
    23:00 +16°C° 0.2 mm 2 mps 742 mmHg 90%

    Tomorrow, 28 May, Tuesday

    Time Temperature Precipitation Wind Pressure Humidity
    00:00 +16°C° 0.2 mm 2 mps 742 mmHg 91%
    01:00 +16°C° 0.2 mm 2 mps 742 mmHg 92%
    02:00 +16°C° 1.4 mm 2 mps 742 mmHg 93%
    03:00 +15°C° 1.4 mm 2 mps 741 mmHg 94%
    04:00 +14°C° 1.4 mm 3 mps 741 mmHg 96%
    05:00 +14°C° 1.9 mm 3 mps 741 mmHg 95%
    06:00 +13°C° 1.9 mm 4 mps 741 mmHg 95%
    07:00 +13°C° 1.9 mm 4 mps 741 mmHg 94%
    08:00 +13°C° 1 mm 4 mps 742 mmHg 93%
    09:00 +13°C° 1 mm 4 mps 742 mmHg 92%
    10:00 +13°C° 1 mm 4 mps 742 mmHg 90%
    11:00 +13°C° 0.7 mm 4 mps 743 mmHg 88%
    12:00 +13°C° 0.7 mm 3 mps 743 mmHg 86%
    13:00 +13°C° 0.7 mm 3 mps 743 mmHg 84%
    14:00 +14°C° 0.6 mm 2 mps 743 mmHg 83%
    15:00 +14°C° 0.6 mm 1 mps 743 mmHg 82%
    16:00 +14°C° 0.6 mm 1 mps 743 mmHg 80%
    17:00 +14°C° 0.1 mm 1 mps 744 mmHg 82%
    18:00 +14°C° 0.1 mm 1 mps 744 mmHg 84%
    19:00 +13°C° 0.1 mm 1 mps 745 mmHg 85%
    20:00 +12°C° 0 mm 1 mps 745 mmHg 86%
    21:00 +12°C° 0 mm 1 mps 746 mmHg 87%
    22:00 +10°C° 0 mm 2 mps 746 mmHg 88%
    23:00 +9°C° 0 mm 2 mps 747 mmHg 88%

    Day after tomorrow, 29 May, Wednesday

    Time Temperature Precipitation Wind Pressure Humidity
    00:00 +8°C° 0 mm 2 mps 747 mmHg 88%
    01:00 +8°C° 0 mm 2 mps 747 mmHg 88%
    02:00 +9°C° 0 mm 1 mps 748 mmHg 88%
    03:00 +8°C° 0 mm 1 mps 748 mmHg 88%
    04:00 +8°C° 0 mm 1 mps 749 mmHg 88%
    05:00 +9°C° 0 mm 1 mps 749 mmHg 83%
    06:00 +9°C° 0 mm 2 mps 750 mmHg 78%
    07:00 +10°C° 0 mm 2 mps 750 mmHg 73%
    08:00 +13°C° 0 mm 2 mps 751 mmHg 65%
    09:00 +14°C° 0 mm 2 mps 751 mmHg 58%
    10:00 +15°C° 0 mm 2 mps 751 mmHg 50%
    11:00 +16°C° 0 mm 2 mps 751 mmHg 47%
    12:00 +17°C° 0 mm 2 mps 751 mmHg 45%
    13:00 +18°C° 0 mm 2 mps 751 mmHg 42%
    14:00 +18°C° 0 mm 2 mps 751 mmHg 42%
    15:00 +19°C° 0 mm 2 mps 751 mmHg 42%
    16:00 +19°C° 0 mm 2 mps 751 mmHg 42%
    17:00 +18°C° 0 mm 2 mps 751 mmHg 49%
    18:00 +17°C° 0 mm 2 mps 751 mmHg 56%
    19:00 +15°C° 0 mm 1 mps 751 mmHg 63%
    20:00 +14°C° 0 mm 1 mps 752 mmHg 67%
    21:00 +13°C° 0 mm 1 mps 752 mmHg 71%
    22:00 +11°C° 0 mm 1 mps 752 mmHg 75%
    23:00 +11°C° 0 mm 1 mps 752 mmHg 78%

    30 May, Thursday

    Time Temperature Precipitation Wind Pressure Humidity
    00:00 +10°C° 0 mm 1 mps 753 mmHg 82%
    01:00 +8°C° 0 mm 0 mps 753 mmHg 85%
    02:00 +9°C° 0 mm 1 mps 752 mmHg 86%
    03:00 +9°C° 0 mm 1 mps 752 mmHg 86%
    04:00 +8°C° 0 mm 1 mps 752 mmHg 87%
    05:00 +10°C° 0 mm 1 mps 752 mmHg 80%
    06:00 +13°C° 0 mm 2 mps 753 mmHg 73%
    07:00 +15°C° 0 mm 2 mps 753 mmHg 65%
    08:00 +16°C° 0 mm 2 mps 753 mmHg 59%
    09:00 +18°C° 0 mm 2 mps 752 mmHg 53%
    10:00 +20°C° 0 mm 2 mps 752 mmHg 46%
    11:00 +20°C° 0 mm 2 mps 752 mmHg 45%
    12:00 +21°C° 0 mm 3 mps 752 mmHg 43%
    13:00 +22°C° 0 mm 3 mps 751 mmHg 42%
    14:00 +21°C° 0 mm 3 mps 751 mmHg 47%
    15:00 +21°C° 0 mm 2 mps 751 mmHg 53%
    16:00 +20°C° 0 mm 2 mps 751 mmHg 58%
    17:00 +19°C° 0.2 mm 2 mps 751 mmHg 66%
    18:00 +19°C° 0.2 mm 1 mps 750 mmHg 74%
    19:00 +18°C° 0.2 mm 1 mps 750 mmHg 83%
    20:00 +16°C° 0.3 mm 2 mps 750 mmHg 86%
    21:00 +15°C° 0.3 mm 2 mps 750 mmHg 89%
    22:00 +14°C° 0.3 mm 2 mps 750 mmHg 92%
    23:00 +13°C° 0 mm 3 mps 750 mmHg 93%

    31 May, Friday

    Time Temperature Precipitation Wind Pressure Humidity
    00:00 +13°C° 0 mm 3 mps 750 mmHg 94%
    01:00 +12°C° 0 mm 3 mps 749 mmHg 95%
    02:00 +12°C° 0 mm 3 mps 749 mmHg 95%
    03:00 +12°C° 0 mm 3 mps 748 mmHg 95%
    04:00 +12°C° 0 mm 3 mps 748 mmHg 95%
    05:00 +13°C° 0 mm 4 mps 748 mmHg 93%
    06:00 +14°C° 0 mm 4 mps 747 mmHg 91%
    07:00 +15°C° 0 mm 4 mps 747 mmHg 89%
    08:00 +14°C° 0.7 mm 6 mps 748 mmHg 89%
    09:00 +12°C° 0.7 mm 8 mps 749 mmHg 89%
    10:00 +10°C° 0.7 mm 9 mps 749 mmHg 89%
    11:00 +10°C° 0.7 mm 8 mps 750 mmHg 86%
    12:00 +9°C° 0.7 mm 7 mps 752 mmHg 83%
    13:00 +8°C° 0.7 mm 6 mps 753 mmHg 80%
    14:00 +10°C° 0 mm 6 mps 754 mmHg 66%
    15:00 +13°C° 0 mm 6 mps 755 mmHg 52%
    16:00 +14°C° 0 mm 7 mps 755 mmHg 38%
    17:00 +14°C° 0 mm 6 mps 756 mmHg 44%
    18:00 +13°C° 0 mm 5 mps 756 mmHg 50%
    19:00 +12°C° 0 mm 4 mps 756 mmHg 56%
    20:00 +10°C° 0 mm 3 mps 757 mmHg 61%
    21:00 +9°C° 0 mm 3 mps 757 mmHg 66%
    22:00 +8°C° 0 mm 3 mps 758 mmHg 71%
    23:00 +7°C° 0 mm 3 mps 758 mmHg 75%

    1 June, Saturday

    Time Temperature Precipitation Wind Pressure Humidity
    00:00 +7°C° 0 mm 3 mps 758 mmHg 79%
    01:00 +5°C° 0 mm 3 mps 759 mmHg 82%
    02:00 +5°C° 0 mm 3 mps 759 mmHg 84%
    03:00 +4°C° 0 mm 3 mps 759 mmHg 85%
    04:00 +4°C° 0 mm 3 mps 760 mmHg 87%
    05:00 +5°C° 0 mm 3 mps 760 mmHg 81%
    06:00 +8°C° 0 mm 3 mps 760 mmHg 75%
    07:00 +8°C° 0 mm 4 mps 760 mmHg 70%
    08:00 +8°C° 0 mm 4 mps 760 mmHg 66%
    09:00 +10°C° 0 mm 3 mps 760 mmHg 63%
    10:00 +10°C° 0 mm 3 mps 760 mmHg 60%
    11:00 +11°C° 0 mm 3 mps 760 mmHg 57%
    12:00 +12°C° 0 mm 3 mps 760 mmHg 53%
    13:00 +13°C° 0 mm 3 mps 760 mmHg 50%
    14:00 +14°C° 0 mm 3 mps 760 mmHg 47%
    15:00 +16°C° 0 mm 3 mps 760 mmHg 45%
    16:00 +17°C° 0 mm 3 mps 760 mmHg 43%
    17:00 +16°C° 0 mm 3 mps 760 mmHg 49%
    18:00 +15°C° 0 mm 2 mps 760 mmHg 54%
    19:00 +14°C° 0 mm 1 mps 760 mmHg 60%
    20:00 +12°C° 0 mm 1 mps 760 mmHg 65%
    21:00 +11°C° 0 mm 1 mps 760 mmHg 71%
    22:00 +9°C° 0 mm 1 mps 761 mmHg 76%
    23:00 +8°C° 0 mm 1 mps 761 mmHg 78%
    Show more